Location: Casaglia
(44.0333°N, 11.5167°E)
Time: 12:34:53
(UTC+00:00)

STARLINK-1278 - Pass Details

Date: 07 June 2020
Orbit: 568 x 571 km, 53.0° (Epoch: 02 July)

Event Time Altitude Azimuth Distance (km) Brightness Sun altitude
Exits shadow 00:30:16 44° 137° (SE) 793 4.1 -20.9°
Drops below altitude 10° 00:34:18 10° 66° (ENE) 1,867 6.9 -20.6°
Enters shadow 01:32:11 -67° 238° (WSW) 12,376 10.4 -16.0°
Maximum altitude 02:10:15 43° 336° (NNW) 810 4.7 -11.8°
